Location: Newark
(44.3681°N, 100.3364°W)
Time: 07:58:09
(UTC+00:00)

Explorer 7 - Pass Details

Date: 27 February 2020
Orbit: 485 x 679 km, 50.3° (Epoch: 08 April)

Event Time Altitude Azimuth Distance (km) Brightness Sun altitude
Rises 18:15:45 0° 263° (W) 2,989 10.5 36.6°
Reaches altitude 10° 18:18:13 10° 268° (W) 2,056 9.7 36.7°
Maximum altitude 18:22:49 49° 344° (NNW) 811 7.7 36.8°
Drops below altitude 10° 18:27:12 10° 60° (ENE) 1,950 9.5 36.9°
Sets 18:29:29 0° 66° (ENE) 2,819 10.3 37.0°
